FW8640 Weather Reports


time (UTC)temp
C
wind
direction
speed
KPH
gust
KPH
rain 1hr
cm
rain 24hr
cm
rain mn
cm
humidity
%
barometer
mb
20260508153019 17 0.0 3.2 0.03 0.38 0.38 85 1016.3
20260508152042 17 0.0 3.2 0.00 0.36 0.36 85 1016.2
20260508151042 17 0.0 6.4 0.00 0.36 0.36 85 1016.3
20260508145018 18 0 1.6 3.2 0.00 0.36 0.36 85 1016.4
20260508144040 18 0.0 3.2 0.00 0.36 0.36 85 1016.3
20260508143018 17 0.0 3.2 0.00 0.36 0.36 84 1016.2
20260508142018 17 0 1.6 3.2 0.00 0.36 0.36 84 1016.4
20260508141019 17 0.0 3.2 0.00 0.36 0.36 84 1016.2
20260508140017 17 0 3.2 6.4 0.00 0.36 0.36 84 1016.4
20260508135039 17 0 3.2 6.4 0.00 0.36 0.36 84 1016.4
20260508134017 17 0 4.8 8.0 0.00 0.36 0.36 84 1016.5
20260508133019 17 0 6.4 14.5 0.00 0.36 0.36 85 1016.6
20260508132019 17 0 4.8 12.9 0.00 0.36 0.36 85 1016.7
20260508131017 17 0 6.4 12.9 0.03 0.36 0.36 85 1016.8
20260508130018 17 0 6.4 12.9 0.03 0.36 0.36 86 1016.9
20260508125144 17 0 3.2 9.7 0.03 0.36 0.36 86 1017.1
20260508124038 17 0 4.8 8.0 0.05 0.36 0.36 87 1017.2
20260508123017 17 0 1.6 4.8 0.10 0.36 0.36 87 1017.1
20260508122019 17 0 3.2 8.0 0.15 0.36 0.36 87 1017.3
20260508121017 17 0.0 4.8 0.15 0.33 0.33 87 1017.4
20260508120019 17 0.0 3.2 0.18 0.33 0.33 87 1017.7
20260508115018 17 0.0 3.2 0.20 0.33 0.33 87 1017.8
20260508114021 17 0.0 1.6 0.20 0.33 0.33 87 1018.1
20260508113019 17 0.0 1.6 0.15 0.25 0.25 87 1018.3
20260508112019 17 0.0 3.2 0.13 0.23 0.23 87 1018.4
20260508111022 17 0.0 1.6 0.10 0.18 0.18 87 1018.5
20260508110019 17 0.0 1.6 0.10 0.15 0.15 87 1018.7
20260508105021 17 0.0 1.6 0.10 0.15 0.15 87 1018.8
20260508104040 17 0.0 1.6 0.10 0.13 0.13 87 1018.9
20260508103019 17 0 1.6 4.8 0.10 0.10 0.10 86 1019.1
20260508102041 17 0.0 3.2 0.10 0.10 0.10 86 1019.2
20260508101019 17 0.0 3.2 0.08 0.08 0.08 85 1019.3
20260508100020 17 0.0 3.2 0.05 0.05 0.05 84 1019.5
20260508095019 17 0.0 3.2 0.05 0.05 0.05 84 1019.6
20260508094018 17 0.0 1.6 0.03 0.03 0.03 83 1019.9
20260508093017 17 0.0 1.6 0.00 0.00 0.00 82 1019.7
20260508092020 17 0.0 3.2 0.00 0.00 0.00 82 1019.6
20260508091019 18 0 1.6 4.8 0.00 0.00 0.00 80 1019.5
20260508090019 18 0 1.6 4.8 0.00 0.00 0.00 79 1019.3
20260508085018 18 0.0 1.6 0.00 0.00 0.00 78 1019.0
20260508084019 18 0 1.6 4.8 0.00 0.00 0.00 77 1018.9
20260508083023 18 0 1.6 6.4 0.00 0.00 0.00 75 1018.9
20260508082018 19 0 1.6 3.2 0.00 0.00 0.00 72 1018.9
20260508081018 19 0.0 3.2 0.00 0.00 0.00 71 1018.7
20260508080019 19 0.0 3.2 0.00 0.00 0.00 73 1018.2
20260508075019 18 0.0 1.6 0.00 0.00 0.00 76 1018.1
20260508074022 18 0 1.6 4.8 0.00 0.00 0.00 79 1018.2
20260508073020 17 0.0 1.6 0.00 0.00 0.00 81 1018.2
20260508072020 17 0.0 3.2 0.00 0.00 0.00 81 1018.5
20260508071019 17 0.0 1.6 0.00 0.00 0.00 81 1018.7
20260508070043 17 0.0 1.6 0.00 0.00 0.00 82 1018.9
20260508065020 17 0.0 3.2 0.00 0.00 0.00 82 1018.8
20260508064019 17 0 1.6 3.2 0.00 0.00 0.00 82 1018.7
20260508063020 17 0 3.2 8.0 0.00 0.00 0.00 83 1018.7
20260508062018 17 0 1.6 4.8 0.00 0.00 0.00 82 1018.4
20260508061020 17 0 1.6 4.8 0.00 0.00 0.00 82 1018.2
20260508060018 17 0.0 1.6 0.00 0.00 0.00 83 1018.1
20260508055020 17 0.0 0.0 0.00 0.00 0.00 83 1017.7
20260508054020 17 0.0 0.0 0.00 0.00 0.00 83 1017.6
20260508053019 17 0.0 0.0 0.00 0.00 0.00 83 1017.6
20260508052042 17 0.0 1.6 0.00 0.00 0.00 83 1017.6
20260508051020 16 0.0 0.0 0.00 0.00 0.00 83 1017.6
20260508050020 16 0.0 1.6 0.00 0.00 0.00 83 1017.6
20260508045020 16 0.0 0.0 0.00 0.00 0.00 83 1017.5
20260508044020 16 0.0 0.0 0.00 0.00 0.00 83 1017.5
20260508043019 16 0.0 0.0 0.00 0.00 0.00 87 1017.3
20260508042018 16 0.0 0.0 0.00 0.00 0.00 87 1017.2
20260508041019 16 0.0 0.0 0.00 0.00 0.00 87 1017.1
20260508040020 15 0.0 0.0 0.00 0.00 0.00 87 1017.1
20260508035018 15 0.0 0.0 0.00 0.00 0.00 86 1017.2
20260508034018 15 0.0 0.0 0.00 0.00 0.00 86 1017.4
20260508033018 15 0.0 0.0 0.00 0.00 0.00 86 1017.5
20260508032041 15 0.0 0.0 0.00 0.00 0.00 85 1017.5
20260508031041 15 0.0 0.0 0.00 0.00 0.00 85 1017.3
20260508030018 15 0.0 0.0 0.00 0.00 0.00 85 1017.3
20260508025020 15 0.0 0.0 0.00 0.00 0.00 84 1017.4
20260508024020 16 0.0 0.0 0.00 0.00 0.00 84 1017.3
20260508023020 16 0.0 0.0 0.00 0.00 0.00 83 1017.2
20260508022018 16 0.0 0.0 0.00 0.00 0.00 83 1017.1
20260508021018 16 0.0 0.0 0.00 0.00 0.00 82 1017.0
20260508020021 16 0.0 0.0 0.00 0.00 0.00 82 1017.0
20260508015020 16 0.0 0.0 0.00 0.00 0.00 81 1017.1
20260508014041 16 0.0 0.0 0.00 0.00 0.00 81 1017.1
20260508013020 16 0.0 0.0 0.00 0.00 0.00 81 1017.1
20260508012018 16 0.0 0.0 0.00 0.00 0.00 81 1017.2
20260508011017 16 0.0 0.0 0.00 0.00 0.00 80 1017.4
20260508010018 16 0.0 0.0 0.00 0.00 0.00 80 1017.5
20260508005017 16 0.0 0.0 0.00 0.00 0.00 80 1017.5
20260508004019 16 0.0 0.0 0.00 0.00 0.00 80 1017.6
20260508003019 16 0.0 0.0 0.00 0.00 0.00 80 1017.7
20260508002018 16 0.0 0.0 0.00 0.00 0.00 80 1017.8
20260508001017 16 0.0 0.0 0.00 0.00 0.00 80 1017.8
20260508000041 16 0.0 0.0 0.00 0.00 0.00 79 1017.9
20260507235018 16 0.0 0.0 0.00 0.00 0.00 79 1017.9
20260507234018 16 0.0 0.0 0.00 0.00 0.00 79 1017.9
20260507233017 16 0.0 0.0 0.00 0.00 0.00 79 1017.9
20260507232040 16 0.0 0.0 0.00 0.00 0.00 79 1018.0
20260507231019 16 0.0 0.0 0.00 0.00 0.00 79 1018.2
20260507230017 16 0.0 0.0 0.00 0.00 0.00 78 1018.3
20260507225017 17 0.0 0.0 0.00 0.00 0.00 78 1018.3
20260507224017 17 0.0 0.0 0.00 0.00 0.00 78 1018.5
20260507223017 17 0.0 0.0 0.00 0.00 0.00 78 1018.7
20260507222017 17 0.0 0.0 0.00 0.00 0.00 78 1018.7
20260507221019 17 0.0 0.0 0.00 0.00 0.00 78 1018.5
20260507220017 17 0.0 0.0 0.00 0.00 0.00 78 1018.5
20260507215017 17 0.0 0.0 0.00 0.00 0.00 78 1018.6
20260507214019 17 0.0 0.0 0.00 0.00 0.00 77 1018.5
20260507213017 17 0.0 0.0 0.00 0.00 0.00 77 1018.6
20260507212018 17 0.0 0.0 0.00 0.00 0.00 77 1018.5
20260507211019 17 0.0 0.0 0.00 0.00 0.00 76 1018.5
20260507210018 17 0.0 0.0 0.00 0.00 0.00 76 1018.5
20260507205018 17 0.0 0.0 0.00 0.00 0.00 76 1018.5
20260507204020 17 0.0 0.0 0.00 0.00 0.00 75 1018.6
20260507203020 17 0.0 0.0 0.00 0.00 0.00 75 1018.5
20260507202020 17 0.0 0.0 0.00 0.00 0.00 75 1018.4
20260507201018 17 0.0 0.0 0.00 0.00 0.00 74 1018.4
20260507200018 17 0.0 0.0 0.00 0.00 0.00 74 1018.4
20260507195020 17 0.0 0.0 0.00 0.00 0.00 74 1018.5
20260507194020 18 0.0 0.0 0.00 0.00 0.00 74 1018.6
20260507193020 18 0.0 0.0 0.00 0.00 0.00 73 1018.5
20260507192018 18 0.0 0.0 0.00 0.00 0.00 73 1018.5
20260507191018 18 0.0 0.0 0.00 0.00 0.00 72 1018.6
20260507190018 18 0.0 0.0 0.00 0.00 0.00 72 1018.5
20260507185018 18 0.0 0.0 0.00 0.00 0.00 72 1018.5
20260507184018 18 0.0 0.0 0.00 0.00 0.00 71 1018.4
20260507183018 19 0.0 0.0 0.00 0.00 0.00 70 1018.5
20260507182018 19 0.0 0.0 0.00 0.00 0.00 70 1018.4
20260507181020 19 0.0 0.0 0.00 0.00 0.00 69 1018.3
20260507180018 20 0.0 0.0 0.00 0.00 0.00 68 1018.1
20260507175041 20 0.0 0.0 0.00 0.00 0.00 67 1018.3
20260507174021 20 0.0 1.6 0.00 0.00 0.00 68 1018.3
20260507173018 20 0.0 0.0 0.00 0.00 0.00 67 1017.7
20260507172041 20 0.0 0.0 0.00 0.00 0.00 67 1017.5
20260507171017 20 0.0 0.0 0.00 0.00 0.00 66 1017.8
20260507170039 20 0.0 0.0 0.00 0.00 0.00 65 1018.1
20260507165041 20 0.0 0.0 0.00 0.00 0.00 66 1018.3
20260507164018 20 0.0 0.0 0.00 0.00 0.00 65 1018.4
20260507163018 20 0.0 0.0 0.00 0.00 0.00 65 1018.3
20260507162018 20 0.0 1.6 0.00 0.00 0.00 64 1018.4
20260507161102 20 225 1.6 8.0 0.00 0.00 0.00 63 1018.5
20260507160019 20 0.0 0.0 0.00 0.00 0.00 63 1018.2
20260507155017 20 0.0 0.0 0.00 0.00 0.00 64 1018.2
20260507154104 20 0.0 0.0 0.00 0.00 0.00 66 1018.3